[[{"header":{"parameterUnit":"m.s-1","parameterCategory":1,"la1":30.2991,"la2":30.254,"lo1":-89.0895,"lo2":-89.0444,"dy":0.0017,"dx":0.0017,"nx":28,"ny":28,"refTime":"2024-12-24T09:00:00:Z","depth":0,"parameterNumber":2,"parameterNumberName":"U-component_of_WINDS"},"data":[0,0,0,0,0,0,0,0,0,0,0,0,0,0,0,0,0,0,0,0,0,0,0,0,0,0,0,0,0,0,0,0,0,0,0,0,0,0,0,0,0,0,0,0,0,0,0,0,0,0,0,0,0,0,0,0,0,0,-5.3546,-5.3546,0,-5.3586,-5.3586,-5.3587,-5.3433,-5.3428,-5.3424,-5.342,-5.346,-5.3466,-5.3471,0,0,0,0,0,0,0,0,0,0,0,0,0,-5.3336,-5.3341,-5.3546,-5.3546,-5.3547,-5.3586,-5.3587,-5.3587,-5.3434,-5.3428,-5.3423,-5.3418,-5.3459,-5.3465,-5.3471,0,0,0,0,0,0,0,0,0,0,0,0,0,-5.3407,-5.3342,-5.3546,-5.3475,-5.3469,-5.3586,-5.3587,-5.3587,-5.3435,-5.3428,-5.3421,-5.3415,-5.3457,-5.3464,-5.3472,-5.3659,0,0,-5.3497,-5.35,0,0,0,0,0,0,0,0,-5.3403,-5.3415,-5.3485,-5.348,-5.3474,-5.3497,-5.3527,-5.3611,-5.3437,-5.3448,-5.3419,-5.3412,-5.3478,-5.3484,-5.3507,-5.3661,-5.3662,-5.3497,-5.3502,-5.3506,-5.3508,0,0,0,0,0,0,0,-5.3398,-5.3412,-5.3562,-5.3486,-5.3479,-5.3441,-5.3444,-5.3543,-5.3501,-5.3446,-5.3435,-5.3442,-5.3474,-5.3499,-5.3506,-5.3663,-5.3497,-5.3504,-5.3509,-5.3512,-5.3971,-5.3978,0,0,0,0,0,0,-5.3403,-5.3409,-5.356,-5.3563,-5.3421,-5.3451,-5.3453,-5.3497,-5.35,-5.3493,-5.3448,-5.3435,-5.3489,-5.3497,-5.3507,-5.3725,-5.3506,-5.3513,-5.3518,-5.3964,-5.3973,-5.3981,0,0,0,0,0,0,-5.3399,-5.3418,-5.3559,-5.3483,-5.3498,-5.3462,-5.3512,-5.3501,-5.3526,-5.3501,-5.3493,-5.3482,-5.3484,-5.3496,-5.3622,-5.3724,-5.3517,-5.3524,-5.3955,-5.3967,-5.3977,-5.4162,0,0,0,0,0,0,-5.3394,-5.3417,-5.3488,-5.3486,-5.3503,-5.3674,-5.3518,-5.3507,-5.3541,-5.3524,-5.353,-5.3525,-5.3479,-5.3611,-5.363,-5.3731,-5.353,-5.3946,-5.396,-5.3973,-5.4147,-5.4178,-5.4205,0,0,0,0,0,-5.3387,-5.3538,-5.3492,-5.3511,-5.359,-5.368,-5.3689,-5.3634,-5.355,-5.362,-5.3603,-5.3524,-5.371,-5.3625,-5.3645,-5.3751,-5.3939,-5.3956,-5.3972,-5.4133,-5.4172,-5.4204,0,0,0,0,0,0,-5.3553,-5.3537,-5.3485,-5.3641,-5.3663,-5.3653,-5.374,-5.3677,-5.3723,-5.3705,-5.3635,-5.3638,-5.3776,-5.3776,-5.3682,-5.3931,-5.381,-5.3831,-5.3926,-5.3962,-5.399,-5.3987,-5.3537,0,0,0,0,0,-5.3608,-5.3682,-5.3664,-5.3803,-5.3817,-5.3778,-5.3814,-5.377,-5.379,-5.3798,-5.3791,-5.3813,-5.3876,-5.3919,-5.3976,-5.4146,-5.4145,-5.4229,-5.4258,-5.4282,-5.4301,-5.439,-5.4427,-5.4035,-5.4035,-5.4035,0,0,-5.3722,-5.3722,-5.3773,-5.3837,-5.3848,-5.3926,-5.3786,-5.3875,-5.3932,-5.3812,-5.393,-5.3926,-5.3946,-5.4095,-5.416,-5.4099,-5.4409,-5.4303,-5.4323,-5.4328,-5.4411,-5.4448,-5.4481,-5.4047,-5.4045,-5.4043,0,0,-5.3968,-5.3977,-5.4093,-5.4108,-5.4128,-5.4101,-5.4129,-5.413,-5.4123,-5.424,-5.4152,-5.4219,-5.433,-5.4347,-5.4371,-5.4626,-5.4554,-5.4647,-5.4798,-5.4886,-5.4917,-5.4944,-5.5033,-5.5067,-5.4666,-5.4666,-5.4667,0,-5.4107,-5.4221,-5.4161,-5.4256,-5.4286,-5.4182,-5.4299,-5.4316,-5.4354,-5.4377,-5.4308,-5.4445,-5.4451,-5.4602,-5.4665,-5.4688,-5.4717,-5.4644,-5.4917,-5.4944,-5.4968,-5.5053,-5.5087,-5.4677,-5.4676,-5.4675,-5.4674,0,-5.439,-5.4471,-5.4563,-5.4602,-5.4643,-5.4748,-5.4704,-5.4753,-5.4706,-5.4686,-5.4807,-5.4811,-5.4867,-5.49,-5.4855,-5.5045,-5.5006,-5.4929,-5.4806,-5.5017,-5.5095,-5.5128,-5.4693,-5.4689,-5.4686,-5.4683,0,0,-5.4741,-5.4746,-5.4781,-5.4797,-5.4812,-5.4873,-5.4974,-5.5029,-5.5071,-5.5101,-5.5184,-5.528,-5.5209,-5.5236,-5.5192,-5.527,-5.547,-5.5182,-5.5181,-5.5234,-5.5678,-5.5735,-5.5774,-5.5424,-5.543,-5.5435,-5.5676,0,-5.4982,-5.5154,-5.5104,-5.5277,-5.535,-5.5253,-5.5341,-5.536,-5.5345,-5.5405,-5.5388,-5.5457,-5.5358,-5.5373,-5.5446,-5.543,-5.5558,-5.5413,-5.5498,-5.5502,-5.5494,-5.5815,-5.5875,-5.6102,-5.5706,-5.5712,-5.5715,0,-5.5285,-5.5327,-5.5508,-5.5511,-5.554,-5.562,-5.5665,-5.5724,-5.5744,-5.5727,-5.5759,-5.5699,-5.5798,-5.5677,-5.5811,-5.5714,-5.5746,-5.5744,-5.5752,-5.5756,-5.562,-5.5826,-5.6174,-5.6207,-5.5763,-5.5759,-5.5756,0,-5.5521,-5.5623,-5.5744,-5.5761,-5.5768,-5.5826,-5.5832,-5.5844,-5.588,-5.5921,-5.5943,-5.5995,-5.6023,-5.6065,-5.6021,-5.5937,-5.6162,-5.6037,-5.615,-5.6152,-5.62,-5.6197,-5.6556,-5.6226,-5.6225,-5.6224,-5.6224,0,-5.5793,-5.5907,-5.5849,-5.5924,-5.6049,-5.599,-5.6115,-5.6109,-5.6122,-5.6193,-5.6113,-5.6182,-5.6121,-5.6184,-5.6151,-5.6267,-5.6281,-5.6269,-5.6259,-5.6275,-5.6276,-5.6294,-5.6276,-5.6233,-5.6231,-5.623,-5.6228,0,-5.6076,-5.6042,-5.6167,-5.6164,-5.6166,-5.6258,-5.6254,-5.6323,-5.6303,-5.6394,-5.6412,-5.6381,-5.6451,-5.6412,-5.6484,-5.6462,-5.6612,-5.6581,-5.6605,-5.6596,-5.6711,-5.67,-5.7092,-5.7139,-5.678,-5.6784,-5.6787,0,-5.6251,-5.6336,-5.6343,-5.6385,-5.6396,-5.6465,-5.6501,-5.6448,-5.6489,-5.6518,-5.6583,-5.6647,-5.6694,-5.6811,-5.6794,-5.6849,-5.6817,-5.6951,-5.6825,-5.6839,-5.6817,-5.6811,-5.6819,-5.6976,-5.698,-5.6983,-5.6986,0,-5.6565,-5.6544,-5.66,-5.6651,-5.6697,-5.6734,-5.6765,-5.6804,-5.6751,-5.6801,-5.6872,-5.691,-5.6984,-5.7047,-5.7095,-5.7099,-5.7034,-5.7027,-5.7055,-5.7071,-5.7081,-5.7075,-5.6672,-5.7017,-5.7014,-5.7012,-5.701,-5.7009,-5.6797,-5.6868,-5.6884,-5.6949,-5.6967,-5.6997,-5.7061,-5.705,-5.7108,-5.7164,-5.7129,-5.7213,-5.723,-5.7287,-5.7301,-5.7365,-5.7311,-5.7353,-5.7363,-5.7374,-5.7389,-5.7074,-5.7374,-5.7373,-5.7372,-5.7371,-5.737,0,-5.7105,-5.7111,-5.7171,-5.7217,-5.7268,-5.7204,-5.7234,-5.7281,-5.7356,-5.7378,-5.7427,-5.7509,-5.757,-5.7559,-5.7615,-5.7669,-5.764,-5.7685,-5.7679,-5.7681,-5.7434,-5.7403,-5.7707,-5.7707,-5.7707,-5.7707,-5.7707,-5.7707,-5.7271,-5.7387,-5.7369,-5.7494,-5.7498,-5.7579,-5.7602,-5.763,-5.7647,-5.7742,-5.7793,-5.7786,-5.7795,-5.7851,-5.7905,-5.79,-5.7923,-5.7979,-5.7963,-5.7732,-5.7699,-5.7667,-5.7637,-5.7985,-5.7985,-5.8204,-5.8206,-5.8207]},{"header":{"parameterUnit":"m.s-1","parameterCategory":1,"la1":30.2991,"la2":30.254,"lo1":-89.0895,"lo2":-89.0444,"dy":0.0017,"dx":0.0017,"nx":28,"ny":28,"refTime":"2024-12-24T09:00:00:Z","depth":0,"parameterNumber":3,"parameterNumberName":"V-component_of_WINDS"},"data":[0,0,0,0,0,0,0,0,0,0,0,0,0,0,0,0,0,0,0,0,0,0,0,0,0,0,0,0,0,0,0,0,0,0,0,0,0,0,0,0,0,0,0,0,0,0,0,0,0,0,0,0,0,0,0,0,0,0,-0.7059,-0.7059,0,-0.7083,-0.7084,-0.7084,-0.707,-0.707,-0.7069,-0.7068,-0.7096,-0.7097,-0.7098,0,0,0,0,0,0,0,0,0,0,0,0,0,-0.7001,-0.7002,-0.7059,-0.7059,-0.7059,-0.7083,-0.7084,-0.7084,-0.707,-0.707,-0.7069,-0.7068,-0.7095,-0.7097,-0.7099,0,0,0,0,0,0,0,0,0,0,0,0,0,-0.7026,-0.7002,-0.7059,-0.7055,-0.7055,-0.7083,-0.7084,-0.7084,-0.7071,-0.707,-0.7069,-0.7068,-0.7095,-0.7097,-0.7099,-0.7132,0,0,-0.7105,-0.7106,0,0,0,0,0,0,0,0,-0.7024,-0.7028,-0.7056,-0.7056,-0.7056,-0.7073,-0.7073,-0.71,-0.7071,-0.7065,-0.7068,-0.7067,-0.7089,-0.7092,-0.7098,-0.7133,-0.7134,-0.7105,-0.7106,-0.7107,-0.7108,0,0,0,0,0,0,0,-0.7023,-0.7027,-0.7069,-0.7056,-0.7056,-0.7053,-0.7055,-0.7078,-0.7083,-0.7065,-0.7064,-0.7067,-0.7089,-0.7097,-0.7099,-0.7135,-0.7105,-0.7107,-0.7108,-0.7109,-0.7196,-0.7197,0,0,0,0,0,0,-0.7021,-0.7025,-0.7068,-0.7069,-0.7037,-0.7055,-0.7058,-0.7068,-0.7082,-0.7083,-0.7068,-0.7067,-0.7094,-0.7097,-0.71,-0.7138,-0.7107,-0.7109,-0.711,-0.7195,-0.7196,-0.7197,0,0,0,0,0,0,-0.702,-0.7025,-0.7067,-0.7047,-0.7052,-0.7057,-0.7069,-0.7069,-0.7077,-0.7084,-0.7085,-0.7075,-0.7093,-0.7097,-0.7123,-0.7139,-0.711,-0.7112,-0.7193,-0.7195,-0.7197,-0.7216,0,0,0,0,0,0,-0.7018,-0.7024,-0.7037,-0.7047,-0.7053,-0.709,-0.707,-0.7071,-0.708,-0.7078,-0.7091,-0.7092,-0.7092,-0.712,-0.7125,-0.7141,-0.7114,-0.7192,-0.7194,-0.7196,-0.7214,-0.7218,-0.7222,0,0,0,0,0,-0.7016,-0.7043,-0.7038,-0.7043,-0.7069,-0.7091,-0.7094,-0.7093,-0.7082,-0.7094,-0.7099,-0.7092,-0.7136,-0.7123,-0.7129,-0.7146,-0.7191,-0.7194,-0.7196,-0.7213,-0.7218,-0.7222,0,0,0,0,0,0,-0.7036,-0.7044,-0.7039,-0.707,-0.7079,-0.7088,-0.7105,-0.7099,-0.7113,-0.7111,-0.7109,-0.7112,-0.7139,-0.7145,-0.713,-0.7177,-0.7162,-0.7166,-0.7173,-0.7178,-0.7181,-0.718,-0.7115,0,0,0,0,0,-0.7043,-0.706,-0.7066,-0.7093,-0.7098,-0.71,-0.711,-0.7108,-0.7118,-0.7123,-0.7129,-0.714,-0.7156,-0.7167,-0.7183,-0.7215,-0.7217,-0.7229,-0.7233,-0.7236,-0.7239,-0.7255,-0.726,-0.7205,-0.7205,-0.7205,0,0,-0.706,-0.7066,-0.7077,-0.7097,-0.7104,-0.7121,-0.7104,-0.7123,-0.7136,-0.7126,-0.7151,-0.7156,-0.7168,-0.7196,-0.721,-0.7202,-0.7254,-0.7239,-0.7241,-0.7243,-0.7258,-0.7263,-0.7268,-0.7207,-0.7206,-0.7206,0,0,-0.7099,-0.7105,-0.7127,-0.7134,-0.7145,-0.7146,-0.7151,-0.7161,-0.7163,-0.7188,-0.718,-0.7195,-0.7224,-0.7232,-0.724,-0.7279,-0.7273,-0.7284,-0.7304,-0.7319,-0.7324,-0.7328,-0.7341,-0.7346,-0.7287,-0.7287,-0.7287,0,-0.7118,-0.7143,-0.714,-0.7159,-0.7167,-0.7157,-0.7179,-0.7186,-0.7202,-0.7208,-0.7199,-0.7233,-0.7241,-0.7271,-0.728,-0.7287,-0.7292,-0.7283,-0.7323,-0.7327,-0.7331,-0.7343,-0.7348,-0.7288,-0.7288,-0.7288,-0.7288,0,-0.7166,-0.7183,-0.72,-0.7213,-0.7223,-0.7244,-0.7244,-0.7254,-0.7251,-0.7253,-0.7277,-0.7285,-0.7301,-0.7308,-0.7306,-0.7337,-0.7332,-0.7323,-0.7308,-0.7337,-0.7349,-0.7354,-0.729,-0.729,-0.7289,-0.7289,0,0,-0.722,-0.7229,-0.7235,-0.724,-0.725,-0.7264,-0.7283,-0.7298,-0.7306,-0.7317,-0.7333,-0.7356,-0.7347,-0.7356,-0.7354,-0.7368,-0.7397,-0.7357,-0.7357,-0.7364,-0.7431,-0.7437,-0.7443,-0.7392,-0.7393,-0.7394,-0.743,0,-0.7258,-0.7292,-0.7288,-0.732,-0.7335,-0.7324,-0.7341,-0.7349,-0.7351,-0.7364,-0.7366,-0.7382,-0.7369,-0.7375,-0.7387,-0.7391,-0.741,-0.7388,-0.7407,-0.7408,-0.7405,-0.7449,-0.7457,-0.749,-0.7434,-0.7435,-0.7436,0,-0.7309,-0.7319,-0.7352,-0.7357,-0.7364,-0.7379,-0.7391,-0.7404,-0.7412,-0.7412,-0.7421,-0.7416,-0.7435,-0.7418,-0.7444,-0.7429,-0.7436,-0.7439,-0.744,-0.7442,-0.7424,-0.7452,-0.7501,-0.7506,-0.7443,-0.7442,-0.7442,0,-0.7344,-0.7366,-0.7388,-0.7393,-0.74,-0.7411,-0.7415,-0.7421,-0.743,-0.744,-0.7445,-0.7459,-0.7466,-0.7476,-0.7474,-0.7463,-0.75,-0.7484,-0.7501,-0.7501,-0.751,-0.751,-0.756,-0.7515,-0.7515,-0.7515,-0.7515,0,-0.7388,-0.7408,-0.7403,-0.7417,-0.7439,-0.7434,-0.7456,-0.7459,-0.7465,-0.7478,-0.747,-0.7483,-0.748,-0.7493,-0.7492,-0.7513,-0.7517,-0.7518,-0.7517,-0.7518,-0.7518,-0.7523,-0.7521,-0.7516,-0.7516,-0.7516,-0.7515,0,-0.7431,-0.7429,-0.7452,-0.7456,-0.7457,-0.7473,-0.7477,-0.7489,-0.7489,-0.7507,-0.751,-0.7511,-0.7525,-0.7525,-0.7542,-0.7541,-0.7567,-0.7564,-0.7564,-0.7563,-0.758,-0.7578,-0.7636,-0.7642,-0.7593,-0.7593,-0.7594,0,-0.7459,-0.7474,-0.7479,-0.7487,-0.7491,-0.7504,-0.7512,-0.7507,-0.7515,-0.7524,-0.7536,-0.7549,-0.756,-0.7584,-0.7586,-0.7598,-0.7595,-0.7614,-0.7597,-0.7597,-0.7595,-0.7594,-0.7595,-0.7618,-0.7619,-0.7619,-0.7619,0,-0.7509,-0.7507,-0.7518,-0.7528,-0.7537,-0.7545,-0.7552,-0.7559,-0.7555,-0.7565,-0.7579,-0.7587,-0.7603,-0.7616,-0.7628,-0.7632,-0.7625,-0.7624,-0.7629,-0.763,-0.763,-0.763,-0.7573,-0.7623,-0.7623,-0.7623,-0.7622,-0.7622,-0.7546,-0.7558,-0.7562,-0.7574,-0.7579,-0.7585,-0.7596,-0.7597,-0.7608,-0.762,-0.7617,-0.7632,-0.7638,-0.7653,-0.7657,-0.7669,-0.7663,-0.7669,-0.7671,-0.7673,-0.7674,-0.7627,-0.7672,-0.7671,-0.7671,-0.7671,-0.7671,0,-0.7595,-0.7596,-0.7607,-0.7617,-0.7626,-0.7617,-0.7624,-0.7632,-0.7646,-0.7651,-0.7661,-0.7676,-0.7689,-0.7691,-0.7702,-0.7711,-0.7708,-0.7715,-0.7714,-0.7715,-0.768,-0.7675,-0.7717,-0.7717,-0.7717,-0.7717,-0.7717,-0.7717,-0.7621,-0.7641,-0.7638,-0.766,-0.7661,-0.7676,-0.768,-0.7686,-0.769,-0.7707,-0.7716,-0.7717,-0.7721,-0.7732,-0.7743,-0.7743,-0.7748,-0.7755,-0.7754,-0.7722,-0.7717,-0.7713,-0.7708,-0.7756,-0.7756,-0.7788,-0.7788,-0.7788]}]]